TimeEST,TemperatureF,Dew PointF,Humidity,Sea Level PressureIn,VisibilityMPH,Wind Direction,Wind SpeedMPH,Gust SpeedMPH,PrecipitationIn,Events,Conditions,WindDirDegrees,DateUTC
12:53 AM,24.1,-9999,N/A,30.00,10.0,South,3.5,-,N/A,,Clear,170,2012-12-23 05:53:00
1:53 AM,23.0,-9999,N/A,29.96,10.0,SSE,4.6,-,N/A,,Clear,150,2012-12-23 06:53:00
2:53 AM,23.0,-9999,N/A,29.95,9.0,SSE,4.6,-,N/A,,Clear,150,2012-12-23 07:53:00
3:53 AM,23.0,-9999,N/A,29.94,10.0,SSE,3.5,-,N/A,,Clear,160,2012-12-23 08:53:00
4:17 AM,24.8,-9999,N/A,29.91,9.0,South,4.6,-,N/A,,Mostly Cloudy,170,2012-12-23 09:17:00
4:53 AM,25.0,-9999,N/A,29.93,10.0,Calm,Calm,-,N/A,,Overcast,0,2012-12-23 09:53:00
5:53 AM,25.0,-9999,N/A,29.93,10.0,Calm,Calm,-,N/A,,Overcast,0,2012-12-23 10:53:00
6:53 AM,25.0,-9999,N/A,29.94,9.0,Calm,Calm,-,N/A,,Mostly Cloudy,0,2012-12-23 11:53:00
7:53 AM,26.1,-9999,N/A,29.95,8.0,Calm,Calm,-,N/A,,Overcast,0,2012-12-23 12:53:00
8:53 AM,25.0,-9999,N/A,29.95,6.0,Calm,Calm,-,N/A,,Haze,0,2012-12-23 13:53:00
9:53 AM,28.9,-9999,N/A,29.98,6.0,Calm,Calm,-,N/A,,Haze,0,2012-12-23 14:53:00
10:02 AM,30.2,-9999,N/A,29.96,7.0,Calm,Calm,-,N/A,,Scattered Clouds,0,2012-12-23 15:02:00
10:53 AM,33.1,-9999,N/A,30.01,10.0,NE,8.1,-,N/A,,Partly Cloudy,50,2012-12-23 15:53:00
11:12 AM,33.8,-9999,N/A,29.99,10.0,NE,5.8,-,N/A,,Mostly Cloudy,50,2012-12-23 16:12:00
11:53 AM,34.0,-9999,N/A,30.01,10.0,Variable,5.8,-,N/A,,Overcast,0,2012-12-23 16:53:00
12:53 PM,36.0,-9999,N/A,30.00,10.0,ENE,5.8,-,N/A,,Overcast,60,2012-12-23 17:53:00
1:53 PM,37.0,-9999,N/A,29.98,10.0,NE,3.5,-,N/A,,Overcast,50,2012-12-23 18:53:00
2:53 PM,36.0,-9999,N/A,29.98,10.0,Calm,Calm,-,N/A,,Overcast,0,2012-12-23 19:53:00
3:53 PM,36.0,-9999,N/A,30.00,10.0,Variable,3.5,-,N/A,,Overcast,0,2012-12-23 20:53:00
4:53 PM,35.1,-9999,N/A,30.01,10.0,NNE,4.6,-,N/A,,Overcast,30,2012-12-23 21:53:00
5:53 PM,34.0,-9999,N/A,30.02,10.0,ENE,4.6,-,N/A,,Overcast,70,2012-12-23 22:53:00
6:53 PM,34.0,-9999,N/A,30.03,10.0,NE,3.5,-,N/A,,Overcast,50,2012-12-23 23:53:00
7:53 PM,32.0,-9999,N/A,30.04,10.0,Calm,Calm,-,N/A,,Overcast,0,2012-12-24 00:53:00
8:53 PM,32.0,-9999,N/A,30.04,10.0,ENE,4.6,-,N/A,,Overcast,70,2012-12-24 01:53:00
9:53 PM,30.0,-9999,N/A,30.03,10.0,East,5.8,-,N/A,,Overcast,80,2012-12-24 02:53:00
10:10 PM,30.2,-9999,N/A,30.00,10.0,ENE,4.6,-,N/A,,Scattered Clouds,70,2012-12-24 03:10:00
10:53 PM,28.0,-9999,N/A,30.02,10.0,East,4.6,-,N/A,,Clear,80,2012-12-24 03:53:00
11:53 PM,27.0,-9999,N/A,30.01,10.0,ENE,4.6,-,N/A,,Clear,70,2012-12-24 04:53:00